Skip Navigation Links
NOAA logo - Click to go to the NOAA homepage
NOAA's National Weather Service
Alaska Aviation Weather Unit
  NWS logo - Click to go to the NWS homepage
Left Navbar Graphic     00 AKDT = 08 GMT

   
NOAA is celebrating 200 years of science, service, and stewardship. Visit the NOAA 200th celebration Web site to learn more.
USA.gov is the U.S. Government's official Web portal to all Federal, state and local government Web resources and services.
Facebook
NWS on Facebook

Important Change Regarding the AAWU Web Presence

 

Over the last several months, the AAWU has been working to navigate its webpages to a nationally supported server. Security, as well as other needs, have necessitated the change.  We have been given an extension for the site changeover while we diligently work at addressing feedback received. As of July 14, 2017, aawu.arh.noaa.gov will be discontinued. The new AAWU web address is weather.gov/aawu. It is now live and will run in-parallel with the old site until it is discontinued on July 14, 2017. Please continue to send any feedback or questions regarding the new webpages to nws.ar.aawu.webauthors@noaa.gov.  Thank you for your patience during this time of transition.
AAWU Home :: Display TAF Add Bookmark
TAF PAGA 240540Z 2406/2506  03007KT P6SM BKN080 OVC200=

4324
FTAK31 PAFA 240540
TAFAUN
TAF

METAR PAGA 240256Z AUTO 02007KT 10SM BKN100 OVC110 11/04 A2957= METAR PAGA 240356Z AUTO 02006KT 10SM FEW095 09/04 A2956= METAR PAGA 240456Z AUTO 03006KT 10SM OVC095 09/04 A2956= METAR PAGA 240556Z AUTO 03006KT 10SM OVC100 08/03 A2956= METAR PAGA 240656Z AUTO 02006KT 10SM SCT100 07/03 A2957= METAR PAGA 240756Z AUTO 02006KT 10SM FEW120 07/03 A2956=
 Alaska TAF Map

NOAA's National Weather Service
Alaska Aviation Weather Unit
6930 Sand Lake Road
Anchorage, AK 99502-1845
Disclaimer
Credits
Glossary
Privacy Policy
About Us
Career Opportunities
Contact AAWU Internet Services Site last modified: April, 17th 2012